sat.trackr.live / text

‹ back to catalog

KL-BETA A

NORAD 49059 · 2021-070A

PAYLOAD ACTIVE UNKNOWN

§ Identity

Operator
Country
GER
Launch date
2021-08-04
Launch site
TAISC
Launch vehicle
Mass (kg)
RCS (m²)

External: N2YO · Heavens-Above · Gunter

§ Orbital elements

Epoch: 2026-05-25T04:18:49.274208Z

Period
103.27 min
Inclination
89.0055°
Eccentricity
0.0003696
Mean motion
13.94389168 rev/d
Perigee alt
910.6 km
Apogee alt
916.0 km
Semi-major
7,291.4 km
B*
4.0966e-5
RAAN
221.0519°
Arg perigee
95.8915°
Mean anomaly
264.2682°
Rev number
24,472

§ Raw data

KL-BETA A1 49059U 21070A   26145.17973697  .00000068  00000+0  40966-4 0  99962 49059  89.0055 221.0519 0003696  95.8915 264.2682 13.94389168244728

JSON: /api/v1/satellites/49059 · /tle

For live sub-satellite position, see the globe view (requires WebGL).

§ Visibility from observer

Set your observer location to see the next 7 days of passes ≥ 10°. The values pass through the URL so the page stays shareable.

No JS? Fill the form by hand. The geolocation button needs JavaScript.